Find Local Weather

World > North America > United States > Washington

Silverdale, Washington Regional Weather

Lat: 47.64N, Lon: 122.69W
Wx Zone: WAZ558
Feedback
Expires:201806191700;;784751
ASUS46 KSEW 191610
RWRWA 

WASHINGTON REGIONAL WEATHER ROUNDUP
NATIONAL WEATHER SERVICE SEATTLE WA
900 AM PDT TUE JUN 19 2018

NOTE:"FAIR" INDICATES FEW OR NO CLOUDS BELOW 12,000 FEET WITH NO 
SIGNIFICANT WEATHER AND/OR OBSTRUCTIONS TO VISIBILITY.


WAZ507-509-555>559-191700-
SEATTLE, TACOMA, EVERETT, AND VICINITY
  
CITY           SKY/WX    TMP DP  RH WIND       PRES   REMARKS
EVERETT        SUNNY     62  56  80 S6        30.08F                  
BOEING FIELD   MOSUNNY   64  53  67 SW5       30.07F                  
RENTON         SUNNY     66  55  67 S5        30.07S                  
SEATAC AIRPORT MOSUNNY   64  53  67 S7        30.09R                  
JBLM-MCCHORD   SUNNY     64  59  83 W3        30.08S                  
PUYALLUP       FAIR      64  57  77 CALM      30.08F                  
BREMERTON      MOSUNNY   60  54  80 SW7       30.08F                  
JBLM-FT LEWIS  SUNNY     63  59  88 W7        30.07F                  
TACOMA NARROWS MOSUNNY   61  53  75 VRB5      30.09S                  
$$
 

SKY/WX - Weather  TMP - Temperature  DP - Dewpoint  RH - Relative Humidity
WIND - Wind Direction/Speed PRES - Barometric Pressure